This demonstration page uses our WeatherBlox Daily Observations layout. Learn more.

Left ArrowRight Arrow

41.55636, -103.73856

Hourly Observations for December 27, 2020

Temp ( °F °C ) Dew Point ( °F °C ) Humidity (%) Winds ( mph kmh ) Pressure ( in mb ) Visibility ( mi km ) Precip ( " mm )
12:58 am 00:58 Mostly Cloudy 38 3.5 24 -4.2 57 57 NNW 12 19 29.87 1012 10 16 0.00 0.00
1:58 am 01:58 Cloudy 38 3.3 26 -3.6 61 61 NNW 14 22 29.80 1009 10 16 0.00 0.00
2:58 am 02:58 Cloudy with Light Showers 37 2.5 28 -2.4 70 70 NNW 17 28 29.84 1010 10 16 0.00 0.00
3:58 am 03:58 Cloudy with Light Showers 33 0.7 32 -0.2 94 94 NW 15 24 29.88 1012 10 16 0.00 0.00
4:58 am 04:58 Mostly Cloudy with Light Showers 34 0.9 32 -0.2 92 92 NW 15 24 29.90 1013 10 16 0.00 0.00
5:58 am 05:58 Mostly Cloudy with Light Rain/Snow 34 1 31 -0.8 88 88 NW 15 24 29.92 1013 10 16 0.00 0.00
6:58 am 06:58 Mostly Cloudy 32 0 29 -1.7 88 88 NW 12 19 29.95 1014 10 16 0.00 0.00
7:58 am 07:58 Partly Cloudy 31 -0.5 28 -2.1 89 89 WNW 9 15 30.00 1016 10 16 0.00 0.00
8:58 am 08:58 Sunny 33 0.5 29 -1.7 85 85 WNW 8 13 30.03 1017 10 16 0.00 0.00
9:58 am 09:58 Mostly Cloudy 36 2.1 31 -0.7 82 82 NW 21 33 30.05 1018 10 16 0.00 0.00
10:58 am 10:58 Partly Cloudy 37 2.7 30 -1 77 77 NW 13 20 30.05 1018 10 16 0.00 0.00
11:58 am 11:58 Mostly Cloudy 40 4.2 27 -3 60 60 NW 10 17 30.01 1016 10 16 0.00 0.00
12:58 pm 12:58 Mostly Cloudy 39 4 25 -4 56 56 NNW 8 13 30.01 1016 10 16 0.00 0.00
1:58 pm 13:58 Mostly Cloudy 40 4.2 26 -3.6 57 57 N 10 17 30.01 1016 10 16 0.00 0.00
2:58 pm 14:58 Mostly Cloudy 39 3.8 25 -3.8 58 58 NW 10 17 30.03 1017 10 16 0.00 0.00
3:58 pm 15:58 Mostly Cloudy 37 2.7 25 -3.7 63 63 NNE 12 19 30.05 1018 10 16 0.00 0.00
4:58 pm 16:58 Mostly Clear 31 -0.8 24 -4.3 77 77 N 6 9 30.10 1019 10 16 0.00 0.00
5:58 pm 17:58 Mostly Cloudy 28 -2 23 -4.8 81 81 Calm 30.14 1021 10 16 0.00 0.00
6:58 pm 18:58 Cloudy 31 -0.3 28 -2.4 86 86 N 7 11 30.16 1022 10 16 0.00 0.00
7:58 pm 19:58 Cloudy with Light Snow Showers 30 -0.9 28 -2 92 92 N 6 9 30.22 1023 8 13 0.01 0.25
8:58 pm 20:58 Mostly Cloudy 28 -2.2 26 -3.3 92 92 S 6 9 30.24 1024 10 16 0.00 0.00
9:58 pm 21:58 Mostly Cloudy 28 -2 27 -2.9 94 94 W 5 7 30.24 1024 10 16 0.00 0.00
10:58 pm 22:58 Mostly Cloudy 28 -2.5 27 -2.9 97 97 W 8 13 30.25 1024 10 16 0.00 0.00
11:58 pm 23:58 Mostly Clear 24 -4.2 22 -5.7 89 89 W 5 7 30.25 1024 10 16 0.00 0.00

Powered by AerisWeather